Regional Weather Roundup
Issued by NWS Upton, NY

Current Version | Previous Version | Text Only | Print | Product List | Glossary On
Versions: 1 2 3 4 5 6 7 8 9 10 11 12 13 14 15 16 17 18 19 20 21 22 23 24 25 26 27 28 29 30 31 32 33 34 35 36 37 38 39 40 41 42 43 44 45 46 47 48 49 50
000
ASUS41 KOKX 191108
RWROKX

REGIONAL WEATHER ROUNDUP
NATIONAL WEATHER SERVICE NEW YORK NY
700 AM EDT SUN APR 19 2015

NOTE: "FAIR" INDICATES FEW OR NO CLOUDS BELOW 12,000 FEET WITH NO
SIGNIFICANT WEATHER AND/OR OBSTRUCTIONS TO VISIBILITY.

NYZ071-072-176-178-NJZ106-104-191200-
NEW YORK CITY METRO AREA


CITY           SKY/WX    TMP DP  RH WIND       PRES   REMARKS
CENTRAL PARK   CLEAR     54  25  32 E10       30.23R
LAGUARDIA APRT MOCLDY    51  31  46 NE6       30.21R
KENNEDY INTL   MOCLDY    50  34  54 E5        30.21R
NEWARK/LIBERTY MOCLDY    52  29  41 N14       30.21R
BRNX BOT. GARD   N/A     50  28  43 SE2       30.22R
TETERBORO      CLEAR     52  26  36 NE3       30.20R
$$

NYZ177-179-078>081-191200-
LONG ISLAND NEW YORK

CITY           SKY/WX    TMP DP  RH WIND       PRES   REMARKS
FARMINGDALE    CLEAR     49  28  44 CALM      30.21R
ISLIP          PTCLDY    44  38  79 CALM      30.20R
SHIRLEY        CLEAR     39  35  86 CALM      30.22R
WESTHAMPTON    CLEAR     34  30  85 N3        30.23R
MONTAUK POINT    N/A     47  38  71 N7        30.22R
$$

NYZ052-065-067-191200-
HUDSON VALLEY

CITY           SKY/WX    TMP DP  RH WIND       PRES   REMARKS
WHITE PLAINS   CLEAR     49  26  41 N7        30.20R
NEWBURGH       CLEAR     45  34  65 NE9       30.23R
MONTGOMERY     CLEAR     45  32  60 NE9       30.23R
POUGHKEEPSIE   CLEAR     45  32  60 N5        30.23R
ALBANY         PTCLDY    41  30  65 N9        30.26R
$$

NJZ001-105-106-008-010-013-015-019>022-104-191200-
NEW JERSEY

CITY           SKY/WX    TMP DP  RH WIND       PRES   REMARKS
NEWARK/LIBERTY MOCLDY    52  29  41 N14       30.21R
TETERBORO      CLEAR     52  26  36 NE3       30.20R
CALDWELL       CLEAR     50  26  39 NE5       30.21R
MORRISTOWN     MOCLDY    46  28  49 NE5       30.21R
SOMERVILLE     FAIR      52  24  33 NE3       30.19R
SUSSEX         CLEAR     46  29  51 NE8       30.23R
ANDOVER          N/A     44  29  55 CALM      30.21R
TRENTON        PTCLDY    52  23  32 E5        30.19R
MILLVILLE      PTCLDY    53  38  56 E10       30.17R
ATLANTIC CITY  PTCLDY    51  40  65 E14       30.17R
WRIGHTSTOWN    PTCLDY    51  38  60 E12       30.16R
TOMS RIVER     PTCLDY    50  39  66 E6        30.20R
BELMAR         PTCLDY    48  37  66 E10       30.20R
$$

PAZ047>061-062-071-191200-
EASTERN PENNSYLVANIA

CITY           SKY/WX    TMP DP  RH WIND       PRES   REMARKS
PHILADELPHIA   MOCLDY    56  26  31 E15G21    30.18R
ALLENTOWN      PTCLDY    43  28  55 E5        30.20R
SCRANTON       PTCLDY    38  27  64 SE3       30.20R
$$

CTZ002-004>006-009-010-012-RIZ004-006-007-MAZ004-011-015-191200-
SOUTHERN NEW ENGLAND
 IN CT

CITY           SKY/WX    TMP DP  RH WIND       PRES   REMARKS
BRADLEY INTL   PTCLDY    46  30  53 NE10      30.22R
HARTFORD       CLEAR     46  32  58 VRB7      30.23R
DANBURY        CLEAR     42  28  57 CALM      30.23R
WTRBRY/OXFORD  CLEAR     45  27  49 NE12      30.22R
BRIDGEPORT     CLEAR     50  31  48 NE6       30.22R
MERIDEN        CLEAR     47  31  53 NE8       30.23R
NEW HAVEN      CLEAR     46  33  60 N7        30.22R
CHESTER        FAIR      46  32  57 N5        30.21R
GROTON         CLEAR     46  33  60 N10       30.21R
WILLIMANTIC    CLEAR     45  31  58 N5        30.22R

 IN RI

CITY           SKY/WX    TMP DP  RH WIND       PRES   REMARKS
PROVIDENCE     SUNNY     46  31  55 N13       30.22R
BLOCK ISLAND   SUNNY     45  34  65 N9        30.20R
WESTERLY       CLEAR     45  33  63 N5        30.22R

 IN MA

CITY           SKY/WX    TMP DP  RH WIND       PRES   REMARKS
BOSTON         MOSUNNY   44  32  62 NW10      30.23R
WORCESTER      CLEAR     41  29  62 N9        30.22R
WESTFIELD      CLEAR     43  31  62 N10       30.23R
PROVINCETOWN   SUNNY    N/A N/A N/A N10       30.22R
NANTUCKET      SUNNY     45  38  76 N14       30.19R
$$

ANZ330-335-338-340-345-350-353-355-191200-
COASTAL MARINE OBSERVATIONS


STATION/POSITION TIME  SKY/WX   TEMP    WIND        PRES    VSBY  WAVE
                                AIR SEA DIR/SP/G                  HT/PER
                 (UTC)          (F)     (DEG/KT/KT) (MB)    (MI)  (FT/S)
NY HARB ENTRANCE 1050            48 47   70/  8/  8 1022.3          2/ 7
4S FIRE IS       1003               45                N/A           2/ 8
20S FIRE ISLAND  0950               44              1021.8          2/ 7
23SW MTP         NOT AVBL
HUDSON CANYON    NOT AVBL
EXECUTION ROCKS  NOT AVBL
WESTERN LI SOUND NOT AVBL
CENTRAL LI SOUND NOT AVBL
EASTERN LI SOUND 1000            44      30/  8/ 10   N/A
ROBBINS REEF     1000            54      30/ 11/ 13 1020.6
$$


>>>>>>>>>>>>>>>>>>>>>>>>>>>> KEY <<<<<<<<<<<<<<<<<<<<<<<<<<<
>                                                          <
>     SKY/WX - SKY CONDITION/PRESENT WEATHER               <
>     TMP    - TEMPERATURE IN FAHRENHEIT                   <
>     DP     - DEWPOINT IN FAHRENHEIT                      <
>     RH     - RELATIVE HUMIDITY IN PERCENT                <
>     WIND   - DIRECTION AND SPEED IN MPH                  <
>     PRES   - MEAN SEA LEVEL PRESSURE IN INCHES OF HG     <
>     WCI    - WIND CHILL INDEX                            <
>     VSB    - VISIBILITY IN MILES                         <
>     HX     - HEAT INDEX                                  <
>     TC     - TEMPERATURE IN CELSIUS                      <
>     VRB    - VARIABLE WIND DIRECTION                     <
>                                                          <
>>>>>>>>>>>>>>>>>>>>>>>>>>>> KEY <<<<<<<<<<<<<<<<<<<<<<<<<<<





USA.gov is the U.S. government's official web portal to all federal, state and local government web resources and services.